This is the latest recevied weather packets stored in our database for station/object G6FCI. If no packets are shown the sender has not sent any weather packets the latest 10 day(s).
| Time | Temp. | Humidity | Pressure | Rain* | Wind** | Luminosity | Snow |
|---|---|---|---|---|---|---|---|
| 1777032543 | 20° C | 48% | 1025.7 hPa | 0 mm | - | - | - |
| 1777028043 | 17.22° C | 56% | 1026.5 hPa | 0 mm | - | - | - |
| 1777026444 | 16.67° C | 58% | 1026.7 hPa | 0 mm | - | - | - |
| 1777025343 | 16.67° C | 61% | 1027 hPa | 0 mm | - | - | - |
| 1777022283 | 14.44° C | 64% | 1027.1 hPa | 0 mm | - | - | - |
| 1777014003 | 5° C | 69% | 1027 hPa | 0 mm | - | - | - |
| 1777012563 | 3.89° C | 71% | 1026.9 hPa | 0 mm | - | - | - |
| 1777011483 | 3.89° C | 70% | 1027.1 hPa | 0 mm | - | - | - |
| 1777010403 | 3.33° C | 70% | 1027.3 hPa | 0 mm | - | - | - |
| 1777010064 | 3.33° C | 71% | 1027.3 hPa | 0 mm | - | - | - |
| 1777008963 | 3.33° C | 71% | 1027.3 hPa | 0 mm | - | - | - |
| 1777007343 | 3.89° C | 69% | 1027.4 hPa | 0 mm | - | - | - |
| 1777006803 | 3.89° C | 70% | 1027.4 hPa | 0 mm | - | - | - |
| 1777006443 | 3.89° C | 71% | 1027.4 hPa | 0 mm | - | - | - |
| 1777005903 | 3.89° C | 71% | 1027.5 hPa | 0 mm | - | - | - |
| 1777003203 | 4.44° C | 70% | 1027.6 hPa | 0 mm | - | - | - |
| 1777000164 | 5° C | 70% | 1027.7 hPa | 0 mm | - | - | - |
| 1776999603 | 5° C | 71% | 1027.8 hPa | 0 mm | - | - | - |
| 1776999243 | 5° C | 71% | 1027.8 hPa | 0 mm | - | - | - |
| 1776996543 | 6.11° C | 70% | 1028.1 hPa | 0 mm | - | - | - |
| 1776995643 | 6.11° C | 71% | 1028.1 hPa | 0 mm | - | - | - |
| 1776990423 | 7.22° C | 80% | 1028.3 hPa | 0 mm | - | - | - |
| 1776988803 | 8.33° C | 84% | 1028.4 hPa | 0 mm | - | - | - |
| 1776985743 | 8.89° C | 86% | 1028.8 hPa | 0 mm | - | - | - |
| 1776985204 | 8.89° C | 86% | 1028.8 hPa | 0 mm | - | - | - |
* Rain latest hour (hover to see other rain measurements)
** Current wind speed in m/s (hover to see current wind gust speed)